Temperature
18 18 18 18 18 18 18 18 18 18 18 18 18 18 18 18 18 18 18 18 18 18 18 18 18 18 18 18 18 18 18 18 18 18 18 18 18 18 18 18 18 18 18
19 18 18 18 18 18 18 18 18 18 18 18 18 18 18 18 18 18 18 18 18 18 18 18 18 18 18 18 18 18 18 18 18 18 18 18 18 18 18 18 18 18 17
19 19 18 18 18 18 18 18 18 18 18 18 18 18 18 18 18 18 18 18 18 18 18 18 18 18 18 18 18 18 18 18 18 18 18 17 17 17 17 17 17 17 17
19 19 19 18 18 18 18 18 18 18 18 18 18 18 18 18 18 18 18 18 18 18 18 18 18 18 18 18 18 18 18 18 18 17 17 17 17 17 17 17 17 17 17
19 19 18 18 18 18 18 18 18 18 18 18 18 18 18 18 18 18 18 18 18 18 18 18 18 18 18 18 18 18 18 18 18 17 17 17 17 17 17 17 17 17 17
19 19 18 18 18 18 18 18 18 18 18 18 18 18 18 18 18 18 18 18 18 18 18 18 18 18 18 18 18 18 17 18 18 17 17 17 17 17 17 17 17 17 17
19 19 18 18 18 18 18 18 18 18 18 18 18 18 18 18 18 18 18 18 18 18 18 18 18 18 18 17 17 17 17 17 17 17 17 17 17 17 17 17 17 17 17
19 19 18 18 18 18 18 18 18 18 18 18 18 18 18 18 18 18 18 18 18 18 18 18 17 18 17 17 17 17 17 17 17 17 17 17 17 17 17 17 17 17 17
19 19 18 18 18 18 18 18 18 18 18 18 18 18 18 18 18 18 18 18 18 18 18 18 17 17 17 17 17 17 17 17 17 17 17 17 17 17 17 17 17 17 17
19 19 18 18 18 18 18 18 18 18 18 18 18 18 18 18 18 18 18 18 18 18 18 18 17 17 17 17 17 17 17 17 17 17 17 17 17 17 17 17 17 17 17
19 19 18 18 18 18 18 18 18 18 18 18 18 18 18 18 18 18 18 18 18 18 18 18 17 17 17 17 17 17 17 17 17 17 17 17 17 17 17 17 17 17 17
19 19 19 18 18 18 18 18 18 18 18 18 18 18 18 18 18 18 18 18 18 18 18 18 18 17 17 17 17 17 17 17 17 17 17 17 17 17 17 17 17 17 17
19 19 19 19 18 18 18 18 18 18 18 18 18 18 18 18 18 18 18 18 18 18 17 17 17 17 17 17 17 17 17 17 17 17 17 17 17 17 17 17 17 17 17
19 19 19 19 18 18 18 18 18 18 18 18 18 18 18 18 18 18 18 18 18 18 18 17 17 17 17 17 17 17 17 17 17 17 17 17 17 17 17 17 17 17 17
19 19 19 19 18 18 18 18 18 18 18 18 18 18 18 18 18 18 18 18 18 18 18 18 17 17 17 17 17 17 17 17 17 17 17 17 17 17 17 17 17 17 17
19 19 19 19 18 18 18 18 18 18 18 18 18 18 18 18 18 18 18 18 18 18 18 18 17 17 17 17 17 17 17 17 17 17 17 17 17 17 17 17 17 17 17
19 19 19 19 18 18 18 18 18 18 18 18 18 18 18 18 18 18 18 18 18 18 18 17 17 17 17 17 17 17 17 17 17 17 17 17 17 17 17 17 17 17 17
20 19 19 19 19 18 18 18 18 18 18 18 18 18 18 18 18 18 18 18 18 18 18 18 17 17 17 17 17 17 17 17 17 17 17 17 17 17 17 17 17 17 17
20 20 19 19 19 19 18 18 18 18 18 18 18 18 18 18 18 18 18 18 18 18 18 18 17 17 17 17 17 17 17 17 17 17 17 17 17 17 17 17 17 17 17
20 20 19 19 19 19 18 18 18 18 18 18 18 18 18 18 18 18 18 18 18 18 18 17 17 17 17 17 17 17 17 17 17 17 17 17 17 17 17 17 17 17 17
20 20 19 19 19 19 19 18 18 18 18 18 18 18 18 18 18 18 18 18 18 18 18 17 17 17 17 17 17 17 17 17 17 17 17 17 17 17 17 17 17 17 17
20 20 20 19 19 19 19 19 18 18 18 18 18 18 18 18 18 18 18 18 18 17 17 17 17 17 17 17 17 17 17 17 17 17 17 17 17 17 17 17 17 17 17
20 20 20 20 19 19 19 18 18 18 18 18 18 18 18 18 17 17 17 17 17 17 17 17 17 17 17 17 17 17 16 16 17 17 17 17 17 17 17 16 16 16 16
21 20 20 20 19 19 19 19 18 18 18 18 18 18 18 17 17 17 17 17 17 17 17 17 17 17 17 17 17 17 16 16 16 16 16 17 17 17 17 17 16 16 16
21 20 20 20 19 19 19 19 18 18 18 18 18 18 18 17 17 17 17 17 17 17 17 17 17 17 17 17 17 16 16 16 16 16 16 16 16 16 16 16 16 16 16
21 20 20 20 20 19 19 19 19 18 18 18 18 18 18 17 17 17 17 17 17 17 17 17 17 17 17 17 16 16 16 16 16 16 16 16 16 16 16 16 16 16 16
Wind_Speed
1 1 4 7 9 10 11 12 12 13 13 14 14 14 13 13 14 14 14 14 14 14 14 15 15 15 16 16 17 18 17 17 17 17 17 17 17 17 16 16 16 15 17
2 3 6 7 9 10 11 11 12 12 13 13 13 13 13 13 13 14 13 13 14 14 14 15 15 15 15 16 17 17 16 16 16 17 17 17 16 16 16 16 15 14 16
3 4 6 8 9 9 10 10 11 12 12 13 13 13 13 13 13 13 13 13 13 14 14 14 15 15 16 16 17 16 16 16 16 16 15 13 14 16 15 15 15 16 15
4 4 6 8 9 9 10 10 10 11 11 12 12 12 12 12 12 12 13 13 13 13 14 14 15 15 16 16 16 16 15 15 15 14 12 11 12 15 15 15 15 15 15
4 4 6 8 9 9 9 9 10 10 10 11 11 11 11 12 12 12 12 12 12 12 13 14 14 14 14 14 14 14 14 14 14 12 10 10 10 14 15 15 15 15 14
4 3 5 7 8 8 8 8 9 9 9 10 10 10 10 11 11 11 11 11 12 11 12 12 13 13 13 13 13 13 13 13 12 10 9 9 10 13 14 14 14 14 13
3 3 4 7 7 7 7 8 8 8 9 9 10 10 10 10 10 10 11 11 11 11 11 11 12 12 12 12 12 12 11 11 10 9 8 9 10 12 13 13 13 13 13
4 3 4 5 6 7 7 7 7 7 8 9 9 9 9 9 9 9 9 10 10 10 10 10 11 11 11 11 10 10 10 10 9 8 8 8 10 12 12 13 13 13 12
3 3 3 3 4 5 6 6 7 8 8 8 9 9 9 8 8 8 8 8 8 9 9 9 10 9 9 9 9 9 8 8 8 7 8 8 10 11 12 12 13 12 12
3 2 2 3 3 3 3 4 6 7 8 8 8 8 7 7 7 7 6 6 7 8 8 8 8 8 8 7 7 8 8 7 7 7 7 8 10 11 12 12 12 12 12
2 1 1 2 2 2 2 3 4 6 7 7 6 6 6 5 5 5 5 6 6 7 7 6 6 7 6 6 5 6 6 5 6 5 6 9 12 12 12 12 12 12 12
2 1 1 1 1 1 2 3 3 4 4 4 4 4 5 5 4 4 4 4 5 5 5 6 6 5 4 3 3 3 3 4 4 4 6 10 12 13 12 12 12 12 12
3 2 1 1 1 1 1 2 3 3 3 4 4 4 4 3 3 3 3 3 3 3 3 3 3 3 2 2 1 1 2 3 3 4 6 9 11 12 13 13 13 13 13
3 3 2 2 1 1 2 2 2 2 2 2 2 3 3 2 2 2 2 2 2 2 2 2 1 1 1 1 1 1 2 2 3 4 5 8 10 11 13 13 13 14 14
3 3 3 3 2 2 2 1 2 1 1 1 1 2 3 2 1 1 1 1 1 1 1 1 0 0 0 0 1 2 2 3 3 4 5 8 10 11 13 14 14 14 14
4 4 3 3 3 3 3 2 1 2 2 2 2 2 3 3 2 1 1 0 1 1 1 1 1 1 0 0 1 2 2 3 3 3 4 6 9 11 12 14 14 15 15
4 4 4 4 3 3 3 2 2 2 2 2 2 3 3 3 3 2 1 1 1 2 2 1 1 1 1 1 1 1 2 2 2 3 3 4 6 8 11 13 14 14 15
4 4 4 4 4 3 3 2 1 1 1 1 2 2 3 4 4 3 2 2 2 1 1 1 1 1 1 1 1 1 1 1 2 3 3 4 5 6 8 10 12 13 14
5 4 4 3 4 4 3 2 2 1 1 1 1 1 3 4 5 4 2 2 2 1 1 2 1 1 1 1 1 1 1 1 1 2 2 3 4 5 6 8 10 11 12
4 4 3 3 3 4 3 2 2 2 1 0 0 1 2 3 3 3 2 2 2 2 1 1 1 1 1 1 0 0 0 1 1 1 2 3 4 4 5 6 7 8 10
4 4 3 3 3 3 2 2 2 1 0 0 1 1 1 2 2 2 1 1 2 2 2 2 2 1 1 1 1 1 2 1 1 1 1 2 2 3 4 4 5 5 6
5 5 4 4 3 3 2 2 2 1 1 0 1 0 1 1 2 2 2 2 2 2 2 2 2 1 1 1 1 1 1 2 1 1 1 2 2 1 2 3 3 4 5
6 6 5 4 4 3 3 2 2 2 2 1 1 1 1 1 2 2 2 2 2 2 3 3 3 3 2 1 1 2 2 2 1 1 1 1 1 1 2 2 3 4 4
7 5 4 4 4 4 4 3 3 2 1 1 1 1 1 1 1 1 2 2 2 2 3 3 3 3 3 2 1 2 2 2 2 1 1 1 1 2 3 2 3 4 4
6 5 5 4 4 4 4 4 4 2 2 1 0 0 1 1 1 1 2 2 2 2 3 3 2 3 3 3 2 2 2 1 2 2 2 2 1 2 2 3 3 3 4
5 5 5 5 4 4 4 4 4 4 3 2 1 1 1 1 1 1 1 1 2 2 3 3 3 4 3 3 2 2 2 2 3 3 3 3 2 2 2 2 2 3 3
Wind_Direction
228 187 125 112 107 106 104 105 105 106 108 108 108 109 111 112 112 114 116 116 114 114 115 116 117 120 123 123 122 122 124 125 125 125 125 124 121 119 118 116 113 114 117
148 138 130 120 112 110 109 109 109 109 110 109 109 110 111 113 116 116 117 116 115 115 115 116 116 119 124 125 124 123 125 126 127 128 128 127 126 123 121 120 119 122 122
112 120 125 122 117 113 112 112 110 110 112 112 112 111 111 111 114 115 115 115 114 115 117 117 116 117 122 123 124 124 126 126 127 127 125 122 127 127 127 127 126 126 127
124 122 126 124 121 115 111 109 107 107 111 115 115 114 112 112 113 113 113 113 114 117 119 119 119 118 119 123 125 126 126 127 127 124 119 123 130 134 133 133 133 132 131
108 120 135 129 124 118 111 107 106 108 110 113 114 114 114 113 113 113 113 114 117 119 121 121 121 121 124 127 127 128 128 129 129 124 122 124 132 138 138 138 137 137 135
105 118 135 128 125 121 116 113 111 112 113 116 117 117 115 115 117 118 117 119 121 122 124 124 123 124 126 126 129 132 134 131 126 125 126 129 135 144 144 144 143 142 141
108 108 128 128 128 129 123 119 119 120 121 123 121 118 117 117 118 119 119 119 121 122 124 124 126 126 128 129 132 135 138 136 134 135 136 139 146 151 151 150 149 147 143
116 100 114 123 123 121 121 119 118 123 127 127 123 120 119 118 117 116 117 119 120 122 125 127 129 126 126 127 130 134 137 139 143 145 148 153 158 159 159 156 152 150 149
98 92 84 100 110 116 117 115 109 115 122 126 125 120 117 116 116 116 117 120 121 120 123 125 125 127 129 131 134 137 141 145 143 149 160 165 169 168 168 164 160 159 158
79 69 70 70 79 86 103 109 105 112 118 122 123 121 118 117 117 117 117 119 122 124 120 124 124 125 129 135 142 145 145 144 147 157 167 175 180 179 177 173 169 166 164
115 59 57 62 70 82 98 107 102 105 112 118 120 116 102 91 99 110 117 119 121 122 124 128 133 122 123 128 136 142 141 145 153 165 177 183 187 188 186 182 179 175 173
190 208 163 127 88 78 98 81 68 72 78 85 92 93 93 93 95 102 109 114 117 124 125 120 121 111 110 113 125 127 133 152 168 183 192 189 192 192 190 187 186 184 182
194 199 172 174 159 112 82 92 85 83 81 83 94 101 95 86 79 78 69 67 87 102 100 99 98 102 108 118 122 138 159 171 188 200 201 197 196 196 195 194 195 193 192
173 198 191 170 158 158 129 106 107 108 102 103 116 125 116 98 78 81 74 70 72 87 95 98 101 97 98 137 164 184 195 195 201 208 212 208 205 202 201 200 202 202 201
180 192 189 168 170 162 144 156 136 142 146 151 152 160 153 134 122 102 109 113 112 119 128 134 152 134 64 222 214 205 213 214 209 215 216 213 211 208 209 209 209 208 207
188 191 180 170 171 156 155 166 163 168 176 172 190 199 182 169 158 149 165 191 218 196 193 190 193 174 225 231 248 226 221 218 213 216 222 223 221 216 215 216 216 214 212
186 183 176 171 156 153 163 180 171 180 172 182 216 205 188 184 181 176 180 221 231 201 186 166 139 132 165 196 241 236 223 218 217 225 227 224 226 225 223 221 222 222 221
172 172 179 172 155 156 159 167 148 162 173 209 218 200 195 194 189 181 189 223 228 182 167 153 155 141 162 176 229 258 236 227 237 233 231 230 230 230 232 229 228 229 229
173 171 169 158 153 155 150 137 121 122 150 226 213 200 204 198 187 181 195 214 195 170 177 196 163 158 180 199 218 240 237 231 245 246 234 234 233 233 238 240 236 234 234
166 163 163 151 142 131 115 98 85 81 52 351 211 212 206 199 183 176 192 202 170 154 181 181 173 152 157 178 209 335 341 273 243 253 244 239 237 235 240 244 243 241 239
158 160 165 156 147 127 111 118 122 164 236 310 261 218 199 194 173 157 181 183 169 175 190 173 158 138 109 107 84 12 355 353 282 262 248 245 247 241 237 240 243 244 248
179 179 173 171 158 152 148 145 145 140 151 209 295 6 223 200 183 176 172 187 186 179 176 174 158 144 159 139 135 100 335 335 323 279 243 235 247 240 232 239 241 235 242
190 189 186 177 165 163 155 116 91 73 52 45 5 340 296 231 212 194 191 188 192 187 202 206 185 176 189 198 168 158 173 240 296 327 295 243 231 233 240 229 231 235 233
200 187 172 166 160 158 148 146 149 152 179 223 235 269 317 311 239 222 212 196 194 198 213 221 202 195 182 203 210 212 199 175 196 281 315 289 245 241 244 241 239 237 236
185 175 166 155 156 155 155 163 156 162 179 169 131 2 308 308 285 252 214 202 202 211 223 224 205 198 195 198 199 196 210 208 202 201 260 288 282 260 244 242 244 247 246
166 165 160 158 167 166 161 164 169 176 176 166 182 217 259 276 287 275 220 209 212 218 226 225 216 208 208 210 206 193 188 194 204 199 224 249 262 272 261 255 248 246 247
Height
1504 1504 1504 1504 1505 1505 1506 1506 1507 1507 1508 1509 1509 1510 1511 1513 1513 1514 1516 1517 1518 1519 1520 1521 1521 1522 1524 1526 1528 1530 1533 1535 1537 1539 1541 1543 1545 1546 1548 1550 1552 1553 1555
1505 1505 1506 1506 1507 1507 1508 1508 1509 1509 1510 1511 1512 1513 1514 1515 1516 1517 1518 1519 1520 1521 1522 1523 1524 1523 1525 1527 1530 1532 1535 1537 1539 1541 1543 1545 1547 1548 1550 1552 1554 1555 1557
1506 1507 1507 1508 1509 1509 1510 1510 1511 1511 1512 1513 1514 1515 1516 1517 1518 1519 1520 1521 1523 1524 1525 1525 1526 1525 1526 1529 1531 1534 1537 1539 1541 1543 1545 1546 1548 1550 1551 1553 1555 1557 1558
1508 1508 1509 1510 1511 1511 1512 1512 1513 1514 1514 1515 1516 1517 1518 1519 1520 1521 1522 1523 1525 1526 1527 1528 1529 1529 1530 1532 1535 1537 1539 1541 1543 1545 1546 1548 1550 1552 1553 1555 1557 1558 1560
1510 1511 1511 1512 1513 1513 1514 1514 1515 1515 1516 1517 1518 1519 1520 1522 1523 1523 1524 1525 1527 1528 1529 1530 1531 1532 1534 1535 1537 1539 1541 1543 1545 1547 1548 1550 1552 1554 1555 1557 1558 1560 1561
1512 1513 1514 1514 1515 1515 1516 1516 1516 1516 1517 1518 1520 1521 1522 1523 1524 1525 1526 1527 1528 1530 1531 1532 1533 1535 1536 1537 1539 1541 1543 1545 1546 1548 1550 1551 1553 1555 1556 1558 1559 1561 1562
1515 1515 1516 1517 1517 1517 1517 1517 1517 1517 1518 1520 1521 1523 1524 1525 1526 1527 1528 1529 1530 1532 1533 1534 1535 1536 1538 1540 1541 1543 1544 1546 1548 1549 1551 1553 1554 1556 1557 1559 1560 1561 1563
1517 1517 1518 1519 1519 1519 1518 1518 1517 1517 1518 1520 1522 1524 1526 1527 1528 1529 1530 1531 1532 1533 1534 1536 1537 1538 1539 1541 1543 1544 1546 1547 1549 1550 1552 1554 1555 1556 1558 1559 1561 1562 1564
1519 1520 1520 1521 1521 1521 1520 1519 1517 1517 1518 1521 1524 1526 1528 1529 1530 1531 1532 1533 1534 1535 1536 1537 1538 1540 1541 1543 1544 1546 1547 1548 1550 1551 1553 1554 1556 1557 1558 1560 1561 1562 1564
1521 1522 1522 1523 1523 1523 1522 1522 1521 1520 1521 1523 1526 1528 1530 1531 1532 1533 1534 1535 1535 1536 1537 1538 1539 1541 1542 1544 1545 1547 1548 1549 1550 1552 1553 1554 1556 1557 1558 1560 1561 1563 1564
1523 1524 1524 1524 1525 1525 1525 1525 1524 1525 1525 1527 1529 1530 1532 1533 1533 1534 1535 1536 1537 1537 1539 1539 1541 1542 1544 1545 1547 1548 1549 1550 1551 1552 1553 1555 1556 1557 1558 1560 1561 1562 1564
1524 1525 1526 1526 1527 1527 1527 1528 1528 1528 1529 1530 1531 1533 1533 1534 1535 1536 1537 1538 1539 1540 1541 1541 1543 1544 1545 1547 1548 1549 1550 1551 1551 1553 1553 1554 1555 1557 1558 1559 1561 1562 1564
1526 1526 1527 1528 1529 1529 1530 1530 1531 1531 1532 1533 1534 1534 1535 1536 1537 1537 1538 1539 1540 1541 1542 1543 1544 1546 1547 1548 1549 1549 1550 1551 1552 1552 1553 1554 1555 1556 1557 1559 1560 1562 1563
1527 1528 1529 1529 1530 1531 1531 1532 1533 1533 1534 1535 1535 1536 1537 1537 1538 1539 1540 1541 1542 1543 1544 1545 1546 1547 1548 1548 1549 1550 1551 1551 1552 1552 1553 1554 1555 1556 1557 1558 1560 1561 1562
1528 1529 1530 1531 1531 1532 1533 1534 1534 1535 1536 1536 1537 1537 1538 1539 1539 1540 1541 1542 1543 1544 1545 1546 1547 1547 1548 1549 1550 1550 1551 1551 1552 1552 1553 1553 1554 1555 1556 1557 1559 1560 1562
1528 1530 1531 1532 1533 1534 1534 1535 1536 1536 1537 1537 1538 1539 1539 1540 1541 1542 1542 1543 1544 1545 1545 1546 1547 1548 1549 1549 1550 1551 1551 1551 1552 1552 1552 1553 1554 1555 1556 1556 1558 1559 1560
1529 1530 1531 1532 1533 1534 1535 1536 1537 1538 1538 1539 1539 1540 1540 1541 1541 1542 1543 1544 1545 1545 1546 1547 1547 1548 1549 1549 1550 1550 1551 1551 1551 1551 1552 1552 1553 1554 1554 1555 1556 1557 1559
1529 1530 1531 1533 1534 1535 1536 1537 1538 1538 1539 1539 1540 1540 1541 1541 1542 1543 1543 1544 1545 1545 1546 1546 1547 1547 1548 1549 1549 1549 1550 1550 1550 1551 1551 1551 1552 1552 1553 1554 1555 1556 1557
1530 1531 1532 1533 1534 1535 1536 1537 1538 1539 1539 1540 1540 1541 1541 1542 1542 1543 1543 1544 1545 1545 1545 1546 1546 1547 1547 1548 1548 1549 1549 1549 1549 1549 1550 1550 1551 1551 1552 1553 1553 1554 1555
1530 1531 1532 1533 1534 1535 1536 1537 1538 1539 1539 1540 1540 1541 1541 1542 1542 1542 1543 1543 1544 1544 1544 1545 1545 1546 1546 1547 1547 1547 1547 1548 1548 1548 1548 1548 1549 1549 1550 1551 1551 1552 1552
1529 1531 1532 1533 1534 1535 1536 1537 1538 1538 1539 1539 1540 1541 1541 1541 1542 1542 1542 1542 1543 1543 1543 1544 1544 1545 1545 1546 1546 1546 1546 1546 1546 1547 1547 1547 1547 1548 1548 1549 1549 1550 1550
1528 1530 1531 1533 1534 1536 1537 1537 1538 1538 1539 1539 1539 1540 1540 1541 1541 1541 1541 1541 1542 1542 1542 1543 1543 1543 1544 1544 1545 1545 1545 1546 1544 1545 1545 1545 1546 1546 1546 1546 1547 1547 1547
1528 1529 1531 1532 1534 1535 1536 1537 1537 1538 1537 1538 1539 1539 1540 1540 1540 1541 1540 1540 1541 1541 1541 1541 1542 1542 1542 1543 1543 1544 1544 1543 1543 1543 1543 1543 1544 1544 1544 1544 1544 1545 1545
1526 1528 1530 1532 1533 1534 1535 1536 1536 1537 1537 1537 1537 1538 1539 1539 1539 1539 1539 1539 1539 1540 1540 1540 1540 1540 1541 1541 1541 1542 1542 1542 1542 1541 1542 1542 1542 1542 1542 1542 1542 1542 1542
1525 1527 1529 1530 1532 1533 1534 1535 1535 1536 1536 1536 1536 1537 1537 1538 1538 1538 1538 1538 1538 1538 1538 1538 1538 1538 1538 1539 1539 1539 1540 1540 1540 1539 1539 1539 1539 1539 1539 1539 1539 1539 1540
1524 1526 1528 1529 1530 1532 1533 1533 1534 1534 1535 1535 1535 1535 1536 1536 1536 1536 1536 1536 1536 1536 1536 1536 1536 1536 1536 1536 1536 1537 1537 1537 1537 1537 1536 1536 1536 1536 1536 1536 1536 1537 1537